Location: *
(46.1866°S, 178.5290°W)
Time: 18:40:19
(UTC+00:00)

Meteor 1-26 Rocket - Pass Details

Date: 19 May 2021
Orbit: 807 x 928 km, 81.3° (Epoch: 17 June)

Event Time Altitude Azimuth Distance (km) Brightness Sun altitude
Rises 06:20:12 0° 191° (S) 3,619 7.5 -19.2°
Reaches altitude 10° 06:22:44 10° 190° (S) 2,665 6.8 -19.6°
Maximum altitude 06:28:52 86° 101° (E) 936 4.3 -20.7°
Drops below altitude 10° 06:34:48 10° 11° (N) 2,579 6.7 -21.7°
Sets 06:37:13 0° 10° (N) 3,495 7.4 -22.1°
